Location: Rowland
(34.5359°N, 79.2929°W)
Time: 14:47:48
(UTC+00:00)

SR - Pass Details

Date: 03 October 2022
Orbit: 577 x 875 km, 66.7° (Epoch: 28 November)

Event Time Altitude Azimuth Distance (km) Brightness Sun altitude
Rises 03:15:06 0° 251° (WSW) 3,429 - -50.0°
Reaches altitude 10° 03:18:29 10° 271° (W) 2,516 - -50.5°
Maximum altitude 03:22:14 17° 311° (NW) 2,058 - -51.0°
Drops below altitude 10° 03:26:00 10° 351° (N) 2,522 - -51.6°
Sets 03:29:24 0° 11° (N) 3,441 - -52.0°
